EUTELSAT 70B

Last updated on Thu Oct 30 2025 00:02:49 GMT+0000 (Coordinated Universal Time)

1 39020U 12069A 25302.54755965 -.00000034 00000+0 00000+0 0 9996 2 39020 0.0671 348.9990 0004430 228.6199 88.1467 1.00272262 47197
UTC large
Height (km)
Speed (km/s)
/
Latitude / Longitude
Inclination (degrees)
Orbital Period (minutes)
Azimuth
Elevation
Range (km)
Doppler Factor

Next 0 passes for location: London (51.5072 / 0.1276)

Sorry there are no passes over London.